Regional Weather Roundup
Issued by NWS

Home | Current Version | Previous Version | Text Only | Print | Product List | Glossary On
Versions: 1 2 3 4 5 6 7 8 9 10 11 12 13 14 15 16 17 18 19 20 21 22 23 24 25 26 27 28 29 30 31 32 33 34 35 36 37 38 39 40 41 42 43 44 45 46 47 48 49 50
000
ASUS46 KPQR 020510
RWROR

OREGON REGIONAL WEATHER ROUNDUP
NATIONAL WEATHER SERVICE PORTLAND OR
1000 PM PDT WED OCT 01 2014

NOTE: "FAIR" INDICATES FEW OR NO CLOUDS BELOW 12,000 FEET WITH
NO SIGNIFICANT WEATHER AND/OR OBSTRUCTIONS TO VISIBILITY.

ORZ001>013-020600-
NORTHWEST OREGON


CITY           SKY/WX    TMP DP  RH WIND       PRES   REMARKS
ASTORIA        CLOUDY    53  50  89 CALM      30.22R
NEWPORT        CLEAR     50  50 100 CALM      30.22S
PORTLAND       PTCLDY    58  50  75 CALM      30.20R
VANCOUVER WA   CLEAR     54  47  77 CALM      30.20R
SCAPPOOSE      CLEAR     50  47  89 CALM      30.19R
HILLSBORO      PTCLDY    50  48  93 NW3       30.20R
AURORA         CLEAR     52  46  80 CALM      30.20R
MCMINNVILLE    CLEAR     54  49  83 N3        30.20S
SALEM          CLEAR     52  45  77 CALM      30.18R
CORVALLIS      CLEAR     52  46  82 NW8       30.20S
EUGENE         CLEAR     50  44  80 NW5       30.18S
$$

ORZ021-028-020600-
SOUTHWEST OREGON


CITY           SKY/WX    TMP DP  RH WIND       PRES   REMARKS
NORTH BEND     CLEAR     55  55 100 N7        30.18S
BROOKINGS      CLEAR     70  43  37 VRB3      30.04R
ROSEBURG       CLEAR     57  44  62 CALM      30.16R
SEXTON SUMMIT  CLEAR     56  36  47 E3        30.18R
MEDFORD        CLEAR     59  47  64 SE3       30.12R
$$

ORZ009-041-020600-
COLUMBIA GORGE


CITY           SKY/WX    TMP DP  RH WIND       PRES   REMARKS
TROUTDALE      PTCLDY    54  47  77 S5        30.19R
THE DALLES     CLEAR     61  41  47 SW12      30.13R
$$

ORZ029>031-042>050-061>064-020600-
EASTERN OREGON


CITY           SKY/WX    TMP DP  RH WIND       PRES   REMARKS
REDMOND        CLEAR     42  25  50 S5        30.15S
BEND           CLEAR     46  30  53 CALM      30.18S
KLAMATH FALLS  CLEAR     45  33  63 CALM      30.18S
LAKEVIEW       CLEAR     37  23  56 N6        30.22S WCI  33
HERMISTON      PTCLDY    54  38  54 SW10      30.08R
PENDLETON      PTCLDY    51  35  54 S6        30.10R
JOHN DAY       CLEAR     47  32  55 E6        30.17S
MEACHAM        CLEAR     35  33  92 CALM      30.14F
LA GRANDE      CLEAR     46  28  49 S5        30.12S
BAKER CITY     CLEAR     36  33  89 CALM      30.15R
BURNS          CLEAR     38  27  64 CALM      30.19R
ROME             N/A     47  35  63 SE10      30.19R
ONTARIO        CLEAR     50  39  66 E5        30.15R
$$


USA.gov is the U.S. government's official web portal to all federal, state and local government web resources and services.